Location: Gombori
(14.9797°N, 2.9419°W)
Time: 12:34:44
(UTC+00:00)

COSMOS 1275 DEB - Visible Passes

Search period start: 29 May 2022 00:00
Search period end: 08 June 2022 00:00
Orbit: 840 x 939 km, 83.0° (Epoch: 23 May)

Date Brightness Start Highest point End Pass type
(mag) Time Alt. Az. Time Alt. Az. Time Alt. Az.
02 Jun ? 22:25:16 10° NNE 22:25:16 10° NNE 22:25:16 10° NNE visible
03 Jun ? 22:24:37 12° N 22:24:37 12° N 22:24:57 10° N visible
04 Jun ? 22:23:57 13° N 22:23:57 13° N 22:24:34 10° N visible
05 Jun ? 22:23:15 15° N 22:23:15 15° N 22:24:09 10° N visible
06 Jun ? 22:22:30 17° N 22:22:30 17° N 22:23:42 10° N visible
07 Jun ? 22:21:44 18° N 22:21:44 18° N 22:23:13 10° N visible
